Location: Gauravaram
(16.6995°N, 80.5417°E)
Time: 20:50:27
(UTC+00:00)

Cosmos 2237 Rocket - Pass Details

Date: 03 August 2024
Orbit: 835 x 848 km, 71.0° (Epoch: 17 September)

Event Time Altitude Azimuth Distance (km) Brightness Sun altitude
Exits shadow 21:11:42 20° 79° (ENE) 1,851 4.4 -40.3°
Drops below altitude 10° 21:14:22 10° 52° (NE) 2,454 5.3 -39.8°
Sets 21:17:17 0° 38° (NE) 3,387 6.2 -39.3°
